TimeAKDT,TemperatureF,Dew PointF,Humidity,Sea Level PressureIn,VisibilityMPH,Wind Direction,Wind SpeedMPH,Gust SpeedMPH,PrecipitationIn,Events,Conditions,WindDirDegrees,DateUTC
12:16 AM,33.8,32.0,93,29.45,10.0,ESE,6.9,-,N/A,,Overcast,120,2012-09-29 08:16:00
12:36 AM,33.8,32.0,93,29.46,10.0,East,5.8,-,N/A,,Overcast,100,2012-09-29 08:36:00
12:56 AM,33.8,32.0,93,29.46,10.0,ESE,9.2,-,N/A,,Overcast,110,2012-09-29 08:56:00
1:16 AM,33.8,30.2,87,29.47,10.0,SE,5.8,-,N/A,,Overcast,130,2012-09-29 09:16:00
1:36 AM,33.8,30.2,87,29.47,10.0,SE,5.8,-,N/A,,Overcast,130,2012-09-29 09:36:00
1:56 AM,33.8,30.2,87,29.48,10.0,SSE,8.1,-,N/A,,Mostly Cloudy,150,2012-09-29 09:56:00
2:16 AM,35.6,28.4,75,29.49,10.0,SE,6.9,-,N/A,,Mostly Cloudy,130,2012-09-29 10:16:00
2:36 AM,35.6,28.4,75,29.49,10.0,South,6.9,-,N/A,,Overcast,180,2012-09-29 10:36:00
2:56 AM,35.6,28.4,75,29.50,10.0,South,6.9,-,N/A,,Overcast,190,2012-09-29 10:56:00
3:16 AM,35.6,28.4,75,29.50,10.0,South,4.6,-,N/A,,Mostly Cloudy,190,2012-09-29 11:16:00
3:36 AM,35.6,28.4,75,29.51,10.0,South,3.5,-,N/A,,Overcast,180,2012-09-29 11:36:00
3:56 AM,35.6,26.6,70,29.52,10.0,South,9.2,-,N/A,,Overcast,190,2012-09-29 11:56:00
4:16 AM,35.6,26.6,70,29.52,10.0,South,10.4,17.3,N/A,,Mostly Cloudy,190,2012-09-29 12:16:00
4:36 AM,35.6,26.6,70,29.52,10.0,SSW,8.1,-,N/A,,Partly Cloudy,200,2012-09-29 12:36:00
4:56 AM,35.6,26.6,70,29.53,10.0,South,9.2,-,N/A,,Clear,190,2012-09-29 12:56:00
5:16 AM,33.8,26.6,75,29.53,10.0,SSW,10.4,-,N/A,,Clear,200,2012-09-29 13:16:00
5:36 AM,35.6,26.6,70,29.54,10.0,SSW,11.5,-,N/A,,Clear,200,2012-09-29 13:36:00
5:56 AM,33.8,26.6,75,29.55,10.0,SSW,10.4,16.1,N/A,,Clear,200,2012-09-29 13:56:00
6:16 AM,33.8,26.6,75,29.56,10.0,SSW,10.4,16.1,N/A,,Clear,200,2012-09-29 14:16:00
6:36 AM,33.8,26.6,75,29.57,10.0,SSW,10.4,17.3,N/A,,Clear,200,2012-09-29 14:36:00
6:56 AM,33.8,26.6,75,29.58,10.0,South,6.9,-,N/A,,Clear,190,2012-09-29 14:56:00
7:16 AM,33.8,26.6,75,29.59,10.0,South,4.6,-,N/A,,Clear,180,2012-09-29 15:16:00
7:36 AM,32.0,24.8,75,29.59,10.0,South,5.8,-,N/A,,Clear,170,2012-09-29 15:36:00
7:56 AM,33.8,24.8,70,29.60,10.0,South,5.8,-,N/A,,Clear,180,2012-09-29 15:56:00
8:16 AM,33.8,24.8,70,29.60,10.0,South,8.1,-,N/A,,Clear,190,2012-09-29 16:16:00
8:36 AM,33.8,24.8,70,29.61,10.0,South,6.9,-,N/A,,Clear,170,2012-09-29 16:36:00
8:56 AM,35.6,24.8,65,29.62,10.0,SE,3.5,-,N/A,,Clear,140,2012-09-29 16:56:00
9:16 AM,33.8,26.6,75,29.63,10.0,ENE,5.8,-,N/A,,Clear,70,2012-09-29 17:16:00
9:36 AM,33.8,26.6,75,29.64,10.0,East,4.6,-,N/A,,Clear,90,2012-09-29 17:36:00
9:56 AM,35.6,26.6,70,29.65,10.0,East,4.6,-,N/A,,Clear,80,2012-09-29 17:56:00
10:16 AM,35.6,26.6,70,29.66,10.0,ESE,5.8,-,N/A,,Clear,110,2012-09-29 18:16:00
10:36 AM,35.6,28.4,75,29.67,10.0,SE,4.6,-,N/A,,Clear,130,2012-09-29 18:36:00
10:56 AM,37.4,28.4,70,29.68,10.0,ESE,5.8,-,N/A,,Clear,110,2012-09-29 18:56:00
11:16 AM,39.2,24.8,56,29.69,10.0,South,6.9,-,N/A,,Clear,180,2012-09-29 19:16:00
11:36 AM,41.0,24.8,53,29.69,10.0,SSW,6.9,-,N/A,,Clear,200,2012-09-29 19:36:00
11:56 AM,41.0,24.8,53,29.70,10.0,South,9.2,-,N/A,,Clear,180,2012-09-29 19:56:00
12:16 PM,42.8,23.0,46,29.71,10.0,South,5.8,-,N/A,,Clear,190,2012-09-29 20:16:00
12:36 PM,42.8,21.2,42,29.72,10.0,SSE,6.9,-,N/A,,Clear,160,2012-09-29 20:36:00
12:56 PM,42.8,21.2,42,29.72,10.0,SSE,6.9,-,N/A,,Clear,160,2012-09-29 20:56:00
1:16 PM,42.8,19.4,39,29.73,10.0,SSE,5.8,-,N/A,,Clear,150,2012-09-29 21:16:00
1:36 PM,42.8,19.4,39,29.73,10.0,SSW,4.6,-,N/A,,Clear,200,2012-09-29 21:36:00
1:56 PM,42.8,19.4,39,29.73,10.0,SSW,4.6,-,N/A,,Clear,200,2012-09-29 21:56:00
2:16 PM,44.6,17.6,34,29.74,10.0,SSW,5.8,-,N/A,,Clear,200,2012-09-29 22:16:00
2:36 PM,44.6,17.6,34,29.74,10.0,Calm,Calm,-,N/A,,Scattered Clouds,0,2012-09-29 22:36:00
2:56 PM,44.6,15.8,31,29.74,10.0,SSE,4.6,-,N/A,,Partly Cloudy,160,2012-09-29 22:56:00
3:16 PM,44.6,15.8,31,29.74,10.0,Calm,Calm,-,N/A,,Clear,0,2012-09-29 23:16:00
3:36 PM,44.6,15.8,31,29.74,10.0,NW,4.6,-,N/A,,Clear,310,2012-09-29 23:36:00
3:56 PM,44.6,17.6,34,29.74,10.0,Calm,Calm,-,N/A,,Mostly Cloudy,0,2012-09-29 23:56:00
4:16 PM,44.6,19.4,37,29.75,10.0,NE,9.2,-,N/A,,Overcast,50,2012-09-30 00:16:00
4:36 PM,44.6,21.2,39,29.75,10.0,NE,9.2,-,N/A,,Overcast,40,2012-09-30 00:36:00
4:56 PM,42.8,21.2,42,29.75,10.0,NNE,4.6,-,N/A,,Scattered Clouds,30,2012-09-30 00:56:00
5:16 PM,42.8,21.2,42,29.76,10.0,North,4.6,-,N/A,,Mostly Cloudy,360,2012-09-30 01:16:00
5:36 PM,44.6,19.4,37,29.76,10.0,Calm,Calm,-,N/A,,Scattered Clouds,0,2012-09-30 01:36:00
5:56 PM,44.6,19.4,37,29.77,10.0,ENE,5.8,-,N/A,,Clear,70,2012-09-30 01:56:00
6:16 PM,44.6,19.4,37,29.77,10.0,NE,4.6,-,N/A,,Clear,50,2012-09-30 02:16:00
6:36 PM,44.6,19.4,37,29.77,10.0,NNE,4.6,-,N/A,,Clear,20,2012-09-30 02:36:00
6:56 PM,42.8,24.8,49,29.78,10.0,NNE,4.6,-,N/A,,Partly Cloudy,20,2012-09-30 02:56:00
7:16 PM,42.8,26.6,53,29.79,10.0,Calm,Calm,-,N/A,,Clear,0,2012-09-30 03:16:00
7:36 PM,41.0,26.6,57,29.79,10.0,Calm,Calm,-,N/A,,Clear,0,2012-09-30 03:36:00
7:56 PM,37.4,24.8,60,29.80,10.0,Calm,Calm,-,N/A,,Clear,0,2012-09-30 03:56:00
8:16 PM,33.8,24.8,70,29.80,10.0,Calm,Calm,-,N/A,,Clear,0,2012-09-30 04:16:00
8:36 PM,32.0,24.8,75,29.81,-9999.0,Calm,Calm,-,N/A,,Clear,0,2012-09-30 04:36:00
8:56 PM,33.8,26.6,75,29.81,-9999.0,Calm,Calm,-,N/A,,Clear,0,2012-09-30 04:56:00
9:16 PM,33.8,24.8,70,29.82,-9999.0,Calm,Calm,-,N/A,,Partly Cloudy,0,2012-09-30 05:16:00
9:36 PM,32.0,24.8,75,29.83,-9999.0,Calm,Calm,-,N/A,,Mostly Cloudy,0,2012-09-30 05:36:00
9:56 PM,32.0,24.8,75,29.84,-9999.0,Calm,Calm,-,N/A,,Scattered Clouds,0,2012-09-30 05:56:00
10:16 PM,30.2,24.8,80,29.84,-9999.0,Calm,Calm,-,N/A,,Mostly Cloudy,0,2012-09-30 06:16:00
10:36 PM,32.0,26.6,80,29.84,-9999.0,Calm,Calm,-,N/A,,Scattered Clouds,0,2012-09-30 06:36:00
10:56 PM,30.2,24.8,80,29.85,-9999.0,Calm,Calm,-,N/A,,Clear,0,2012-09-30 06:56:00
11:16 PM,28.4,24.8,86,29.86,-9999.0,Calm,Calm,-,N/A,,Unknown,0,2012-09-30 07:16:00
11:36 PM,28.4,24.8,86,29.86,-9999.0,Calm,Calm,-,N/A,,Unknown,0,2012-09-30 07:36:00
11:56 PM,26.6,24.8,93,29.86,10.0,Calm,Calm,-,N/A,,Clear,0,2012-09-30 07:56:00